Regional Weather Roundup
Issued by NWS

Home | Current Version | Previous Version | Text Only | Print | Product List | Glossary Off
Versions: 1 2 3 4 5 6 7 8 9 10 11 12 13 14 15 16 17 18 19 20 21 22 23 24 25 26 27 28 29 30 31 32 33 34 35 36 37 38 39 40 41 42 43 44 45 46 47 48 49 50

000
ASUS43 KMKX 091221
RWRWI

WISCONSIN REGIONAL WEATHER ROUNDUP
NATIONAL WEATHER SERVICE MILWAUKEE/SULLIVAN WI
600 AM CST FRI DEC 09 2016

NOTE: "FAIR" INDICATES FEW OR NO CLOUDS BELOW 12,000 FEET WITH NO
SIGNIFICANT WEATHER AND/OR OBSTRUCTIONS TO VISIBILITY.

WIZ001-002-006>008-014>016-023>028-091300-
NORTHWEST WISCONSIN

CITY           SKY/WX    TMP DP  RH WIND       PRES   REMARKS
SUPERIOR ARPT  CLOUDY    15   8  73 NW7       30.51S WCI   5
6HR MIN TEMP:  12; 6HR MAX TEMP:  15;

ASHLAND        CLOUDY    16   8  71 NW7       30.47S WCI   6
6HR MIN TEMP:  13; 6HR MAX TEMP:  17; 6HR PCP: TRACE;

HAYWARD        CLOUDY    13   6  74 NW5       30.46S WCI   5
6HR MIN TEMP:  11; 6HR MAX TEMP:  16;

SIREN          FLURRIES  13  10  89 W3        30.50S
6HR MIN TEMP:   9; 6HR MAX TEMP:  14;

CUMBERLAND     FLURRIES  12   9  85 W6        30.47S WCI   3
RICE LAKE      CLOUDY    10   8  89 CALM      30.50S
6HR MIN TEMP:   8; 6HR MAX TEMP:  16;

CHETEK         CLOUDY    10   8  89 CALM      30.50R
6HR MIN TEMP:  10; 6HR MAX TEMP:  17;

LADYSMITH      MOCLDY    11   7  84 NW8       30.47R WCI   0
6HR MIN TEMP:  10; 6HR MAX TEMP:  20;

EAU CLAIRE     CLEAR     10   7  87 CALM      30.50S
6HR MIN TEMP:  10; 6HR MAX TEMP:  20;

MENOMONIE      CLOUDY    13  10  89 W5        30.52S WCI   5
6HR MIN TEMP:  12; 6HR MAX TEMP:  19;

NEW RICHMOND   CLOUDY    13  10  88 W3        30.51S
6HR MIN TEMP:  10; 6HR MAX TEMP:  18;

OSCEOLA        FLURRIES  14  11  87 W3        30.55S
6HR MIN TEMP:  12; 6HR MAX TEMP:  19;

$$

WIZ003>005-009-010-017-018-091300-
NORTH CENTRAL WISCONSIN

CITY           SKY/WX    TMP DP  RH WIND       PRES   REMARKS
MANITOWISH WTR CLOUDY    11   8  85 W10       30.36S WCI  -2
6HR MIN TEMP:  11; 6HR MAX TEMP:  16;

ARBOR VITAE    PTCLDY    14   9  81 NW6       30.36S WCI   5
6HR MIN TEMP:  14; 6HR MAX TEMP:  19;

WOODRUFF       PTCLDY    14   9  81 NW6       30.36S WCI   5
6HR MIN TEMP:  14; 6HR MAX TEMP:  19;

RHINELANDER    CLOUDY    13   8  81 W8        30.37R WCI   2
6HR MIN TEMP:  13; 6HR MAX TEMP:  19; 6HR PCP: TRACE;

EAGLE RIVER    LGT SNOW  15  10  80 W10       30.35R WCI   2
6HR MIN TEMP:  15; 6HR MAX TEMP:  17;

LAND O LAKES   LGT SNOW  15  12  88 W5        30.36R WCI   8
6HR MIN TEMP:  13; 6HR MAX TEMP:  17;

PHILLIPS       CLEAR     10   8  90 W3        30.40S
6HR MIN TEMP:  11; 6HR MAX TEMP:  17;

TOMAHAWK       CLEAR      8   5  89 W5        30.40S WCI  -1
6HR MIN TEMP:   8; 6HR MAX TEMP:  18;

MEDFORD        CLEAR     10   7  86 NW7       30.40S WCI  -1
6HR MIN TEMP:  10; 6HR MAX TEMP:  19;

MERRILL        CLEAR     13   7  76 CALM      30.42R
6HR MIN TEMP:  13; 6HR MAX TEMP:  20;

$$

WIZ029-030-035-036-043>047-091300-
CENTRAL WISCONSIN

CITY           SKY/WX    TMP DP  RH WIND       PRES   REMARKS
WAUSAU         PTCLDY    15   6  67 N9        30.41R WCI   3
6HR MIN TEMP:  15; 6HR MAX TEMP:  20; 6HR PCP: TRACE;

MOSINEE        PTCLDY   N/A N/A N/A NW10      30.42R
MARSHFIELD     PTCLDY    11   7  84 NW12      30.42S WCI  -3
6HR MIN TEMP:  11; 6HR MAX TEMP:  18;

STEVENS POINT  MOCLDY    16  11  81 NW6       30.43R WCI   7
6HR MIN TEMP:  16; 6HR MAX TEMP:  19;

WAUPACA        PTCLDY    22  14  71 W5        30.43S WCI  16
6HR MIN TEMP:  21; 6HR MAX TEMP:  23;

WAUTOMA        CLOUDY    17  12  80 W10       30.46R WCI   5
6HR MIN TEMP:  16; 6HR MAX TEMP:  22; 6HR PCP: TRACE;

WISC RAPIDS    PTCLDY    15  10  80 NW9       30.46R WCI   3
6HR MIN TEMP:  14; 6HR MAX TEMP:  20;

CAMP DOUGLAS   CLEAR     15  10  81 NW9       30.48R WCI   3
6HR MIN TEMP:  15; 6HR MAX TEMP:  22; 6HR PCP: TRACE;

$$

WIZ011>013-019>022-031-037>040-048>050-091300-
NORTHEAST WISCONSIN

CITY           SKY/WX    TMP DP  RH WIND       PRES   REMARKS
ANTIGO         CLOUDY    15   9  76 NW8       30.37R WCI   4
6HR MIN TEMP:  15; 6HR MAX TEMP:  17;

SHAWANO        CLOUDY    22  15  71 NW6       30.41S WCI  15
6HR MIN TEMP:  20; 6HR MAX TEMP:  23;

OCONTO         MOCLDY    18   8  65 W7        30.40R WCI   9
6HR MIN TEMP:  15; 6HR MAX TEMP:  23;

STURGEON BAY   CLEAR     21  11  65 NW17G23   30.38R WCI   7
6HR MIN TEMP:  21; 6HR MAX TEMP:  24; 6HR PCP:  0.07;

GREEN BAY      CLOUDY    22  16  78 NW10      30.41R WCI  11
6HR MIN TEMP:  21; 6HR MAX TEMP:  24;

MANITOWOC      CLEAR     19  15  84 W9        30.41R WCI   8
6HR MIN TEMP:  19; 6HR MAX TEMP:  23;

APPLETON       MOCLDY    16   9  73 W6        30.39R WCI   7
CLINTONVILLE   CLOUDY    21  12  68 NW9       30.41S WCI  11
OSHKOSH        CLOUDY    19  12  74 W8        30.42R WCI   9
6HR MIN TEMP:  18; 6HR MAX TEMP:  21;

$$

WIZ032>034-041-042-053>061-091300-
SOUTHWEST WISCONSIN

CITY           SKY/WX    TMP DP  RH WIND       PRES   REMARKS
LA CROSSE      CLOUDY    21  12  68 N12       30.52S WCI   9
6HR MIN TEMP:  21; 6HR MAX TEMP:  24; 6HR PCP: TRACE;

SPARTA         CLOUDY    18  13  79 NW9       30.52R WCI   7
6HR MIN TEMP:  18; 6HR MAX TEMP:  22;

VIROQUA        CLOUDY    18  15  88 NW6       30.47S WCI   9
6HR MIN TEMP:  18; 6HR MAX TEMP:  20;

BOSCOBEL       CLOUDY    20  14  77 SW6       30.54R WCI  12
6HR MIN TEMP:  20; 6HR MAX TEMP:  23; 6HR PCP: TRACE;

PRAIRIE DU CHI CLEAR     16  11  80 W8        30.55R WCI   5
6HR MIN TEMP:  15; 6HR MAX TEMP:  21;

PLATTEVILLE    CLOUDY    18  16  92 W8        30.51R WCI   7
6HR MIN TEMP:  18; 6HR MAX TEMP:  21;

$$

WIZ056-057-062-063-064-067-068-091300-
SOUTH CENTRAL WISCONSIN

CITY           SKY/WX    TMP DP  RH WIND       PRES   REMARKS
REEDSBURG      CLOUDY    19  11  70 NW8       30.48R WCI   9
6HR MIN TEMP:  19; 6HR MAX TEMP:  22;

BARABOO/DELLS  CLOUDY    20  11  68 NW12      30.46R WCI   8
6HR MIN TEMP:  20; 6HR MAX TEMP:  22;

LONE ROCK      CLOUDY    22  14  71 W7        30.50S WCI  13
6HR MIN TEMP:  22; 6HR MAX TEMP:  23; 6HR PCP: TRACE;

MINERAL POINT  FLURRIES  21  18  86 W10       30.47R WCI  10
MADISON        FLURRIES  21  12  68 NW6       30.47R WCI  13
6HR MIN TEMP:  19; 6HR MAX TEMP:  22; 6HR PCP: TRACE;

MIDDLETON      CLOUDY    23  15  72 NW13      30.47R WCI  11
6HR MIN TEMP:  23; 6HR MAX TEMP:  24;

WATERTOWN      PTCLDY    18  15  87 W6        30.45R WCI  10
6HR MIN TEMP:  17; 6HR MAX TEMP:  21;

MONROE         FLURRIES  21  18  86 W9        30.46R WCI  11
JANESVILLE     CLOUDY    25  18  74 W10       30.47R WCI  15
$$

WIZ051-052-058>065-066-070>072-091300-
SOUTHEAST WISCONSIN

CITY           SKY/WX    TMP DP  RH WIND       PRES   REMARKS
MILWAUKEE      CLEAR     24  15  68 W12       30.44R WCI  13
6HR MIN TEMP:  23; 6HR MAX TEMP:  24;

WAUKESHA       CLEAR     18  14  86 W12G18    30.45R WCI   5
MILWAUKEE/TIMM CLEAR     19  14  79 W6        30.45R WCI  11
RACINE         CLEAR     20  14  77 NW8       30.46R WCI  10
6HR MIN TEMP:  20; 6HR MAX TEMP:  24;

BURLINGTON     MOCLDY    25  22  89 CALM      30.45R
6HR MIN TEMP:  25; 6HR MAX TEMP:  27;

KENOSHA        CLOUDY    21  16  81 NW10      30.45R WCI  10
6HR MIN TEMP:  20; 6HR MAX TEMP:  22;

FOND DU LAC    PTCLDY    19  11  70 W12       30.42S WCI   7
6HR MIN TEMP:  19; 6HR MAX TEMP:  22;

SHEBOYGAN      CLEAR     20  13  74 W7        30.41R WCI  11
6HR MIN TEMP:  20; 6HR MAX TEMP:  23;

WEST BEND      CLEAR     19  16  86 W8        30.42R WCI   9
JUNEAU         CLEAR     18  13  82 W5        30.45R WCI  11
6HR MIN TEMP:  17; 6HR MAX TEMP:  20;

$$

LSZ147-162-091300-
LAKE SUPERIOR

STATION/POSITION TIME  TEMP    WIND        PRES    WAVE
                       AIR SEA DIR/SP/G            HT/PER
                 (UTC) (F)     (DEG/KT/KT) (MB)    (FT/S)
DEVILS ISLAND    1200   18     300/ 14/ 18 1032.8R
PORT WING        1140   19     300/ 15/ 17 1032.2S
SAXON HARBOR     1140   19     270/  9/ 14 1031.2R
$$

LMZ867-665-643>646-091300-
LAKE MICHIGAN

STATION/POSITION TIME  TEMP    WIND        PRES    WAVE
                C1F1C2F2C3F3C4F4C5F5C6F6C7F7C8M1C9M2Ca!



USA.gov is the U.S. government's official web portal to all federal, state and local government web resources and services.